TimeEST,TemperatureF,Dew PointF,Humidity,Sea Level PressureIn,VisibilityMPH,Wind Direction,Wind SpeedMPH,Gust SpeedMPH,PrecipitationIn,Events,Conditions,WindDirDegrees,DateUTC
12:53 AM,37.0,25.0,62,29.90,10.0,NNW,10.4,23.0,N/A,,Clear,330,2012-11-09 05:53:00
1:53 AM,36.0,25.0,64,29.92,10.0,NW,9.2,19.6,N/A,,Clear,320,2012-11-09 06:53:00
2:53 AM,36.0,24.1,62,29.93,10.0,NW,8.1,-,N/A,,Clear,320,2012-11-09 07:53:00
3:53 AM,35.1,24.1,64,29.94,10.0,NW,6.9,-,N/A,,Clear,320,2012-11-09 08:53:00
4:53 AM,36.0,21.9,57,29.96,10.0,NW,9.2,18.4,N/A,,Clear,310,2012-11-09 09:53:00
5:53 AM,36.0,17.1,46,29.98,10.0,NNW,11.5,19.6,N/A,,Clear,330,2012-11-09 10:53:00
6:53 AM,37.0,14.0,39,30.00,10.0,NW,11.5,26.5,N/A,,Clear,320,2012-11-09 11:53:00
7:53 AM,39.0,15.1,38,30.02,10.0,Variable,4.6,-,N/A,,Clear,0,2012-11-09 12:53:00
8:53 AM,42.1,16.0,35,30.04,10.0,NW,8.1,16.1,N/A,,Clear,310,2012-11-09 13:53:00
9:53 AM,44.1,17.1,34,30.05,10.0,NW,6.9,-,N/A,,Clear,320,2012-11-09 14:53:00
10:53 AM,44.1,19.0,37,30.07,10.0,North,11.5,-,N/A,,Clear,350,2012-11-09 15:53:00
11:53 AM,46.9,21.0,36,30.05,10.0,NW,9.2,-,N/A,,Clear,310,2012-11-09 16:53:00
12:53 PM,48.9,21.0,33,30.05,10.0,NW,10.4,-,N/A,,Scattered Clouds,310,2012-11-09 17:53:00
1:53 PM,50.0,21.0,32,30.05,10.0,NW,11.5,17.3,N/A,,Clear,310,2012-11-09 18:53:00
2:53 PM,52.0,21.9,31,30.05,10.0,Variable,5.8,-,N/A,,Scattered Clouds,0,2012-11-09 19:53:00
3:53 PM,52.0,21.9,31,30.06,10.0,NW,5.8,-,N/A,,Clear,320,2012-11-09 20:53:00
4:53 PM,48.0,21.9,36,30.08,10.0,NNW,3.5,-,N/A,,Clear,340,2012-11-09 21:53:00
5:53 PM,37.9,28.9,70,30.12,10.0,Calm,Calm,-,N/A,,Clear,0,2012-11-09 22:53:00
6:53 PM,45.0,27.0,49,30.14,10.0,NNW,5.8,-,N/A,,Clear,340,2012-11-09 23:53:00
7:53 PM,39.0,28.9,67,30.16,10.0,Calm,Calm,-,N/A,,Clear,0,2012-11-10 00:53:00
8:53 PM,35.1,28.9,78,30.17,10.0,WSW,3.5,-,N/A,,Clear,250,2012-11-10 01:53:00
9:53 PM,34.0,30.0,85,30.17,10.0,SW,4.6,-,N/A,,Clear,220,2012-11-10 02:53:00
10:53 PM,35.1,30.0,82,30.18,10.0,Calm,Calm,-,N/A,,Overcast,0,2012-11-10 03:53:00
11:53 PM,35.1,30.9,85,30.20,10.0,Calm,Calm,-,N/A,,Overcast,0,2012-11-10 04:53:00